Tracking 29799 objects as of 11-Oct-2024
HD Live streaming from Space Station
objects crossing your sky now

BREEZE-M DEB

Track BREEZE-M DEB now!
10-day predictions


NORAD ID: 38592
Int'l Code: 2008-011AP
Perigee: 690.3 km
Apogee: 25,835.1 km
Inclination: 48.8 °
Period: 456.3 minutes
Semi major axis: 19633 km
RCS: 0.003 m2 (small)
Launch date: March 14, 2008
Source: Commonwealth of Independent States (former USSR) (CIS)
Launch site: TYURATAM MISSILE AND SPACE COMPLEX (TTMTR)

Note: This is SATELLITE DEBRIS
Your satellite tracking list
Your tracking list is empty




NASA's NSSDC Master Catalog

Two Line Element Set (TLE):
1 38592U 08011AP  24284.80928019  .00006062  00000-0  81308-1 0  9999
2 38592  48.8101  99.2976 6403497 173.8530 352.6163  3.15573708151904
Source of the keplerian elements: AFSPC